Date String (YYYY-MM-DD hh:mm:ss) UTC,Instrument flags,Ambient pressure (hPa),Sample flow (lpm),Bypass flow (lpm),Sample temperature (°C),Ambient temperature (°C),ASC tube jacket temperature (°C),LED temperature (°C),Box temperature (°C),Sample RH (%),Span deviation,Mass concentration (μg/m³),Mass concentration (μg/m³),Mass concentration (μg/m³)
DateTimeUTC,F1_M11,P_M11,Q1_M11,Q2_M11,T1_M11,T2_M11,T3_M11,T4_M11,T5_M11,U1_M11,ZSPAN_M11,X0_M11,X2_M11,X1_M11
2021-08-25 05:00:00,,0829.1,5.02,0.00,29.3,26.4,00.0,38.5,30.8,15.1,0002.2,0011.86,0004.97,0004.39
2021-08-25 05:01:00,,0829.0,4.99,0.00,29.3,26.8,00.0,38.4,30.8,15.1,0002.3,0011.73,0005.00,0004.39
2021-08-25 05:02:00,,0829.1,5.00,0.00,29.3,27.1,00.0,38.4,30.9,15.1,0002.0,0011.56,0005.00,0004.40
2021-08-25 05:03:00,,0829.1,5.00,0.00,29.3,27.4,00.0,38.4,31.0,15.1,0001.8,0011.20,0004.98,0004.40
2021-08-25 05:04:00,,0829.1,5.01,0.00,29.3,27.7,00.0,38.4,31.1,15.0,0001.8,0010.62,0004.98,0004.41
2021-08-25 05:05:00,,0829.1,4.98,0.00,29.3,27.9,00.0,38.4,31.1,15.1,0001.6,0010.06,0004.96,0004.40
2021-08-25 05:06:00,,0829.1,5.01,0.00,29.3,28.1,00.0,38.4,31.2,15.1,0001.6,0009.89,0004.93,0004.39
2021-08-25 05:07:00,,0829.0,5.00,0.00,29.4,28.3,00.0,38.4,31.2,15.1,0001.3,0010.65,0004.93,0004.39
2021-08-25 05:08:00,,0829.1,4.99,0.00,29.4,28.4,00.0,38.4,31.3,15.1,0001.6,0010.69,0004.94,0004.38
2021-08-25 05:09:00,,0829.0,5.01,0.00,29.5,28.5,00.0,38.5,31.3,15.0,0002.1,0009.79,0004.97,0004.38
2021-08-25 05:10:00,,0829.0,5.01,0.00,29.5,28.6,00.0,38.5,31.3,15.0,0002.2,0009.80,0004.98,0004.37
2021-08-25 05:11:00,,0829.1,5.00,0.00,29.5,28.7,00.0,38.5,31.4,15.0,0002.5,0009.69,0004.96,0004.36
2021-08-25 05:12:00,,0829.1,4.99,0.00,29.5,28.7,00.0,38.5,31.4,14.9,0002.1,0009.52,0004.93,0004.36
2021-08-25 05:13:00,,0829.1,5.00,0.00,29.6,28.8,00.0,38.5,31.4,14.9,0002.1,0009.55,0004.93,0004.36
2021-08-25 05:14:00,,0829.2,5.01,0.00,29.6,28.5,00.0,38.6,31.4,14.9,0002.1,0010.04,0004.95,0004.35
2021-08-25 05:15:00,,0829.1,4.99,0.00,29.5,26.7,00.0,38.5,30.9,14.9,0002.4,0010.11,0004.94,0004.34
2021-08-25 05:16:00,,0829.2,4.99,0.00,29.4,26.3,00.0,38.5,30.8,15.0,0002.6,0010.41,0004.93,0004.34
2021-08-25 05:17:00,,0829.2,5.01,0.00,29.3,26.6,00.0,38.5,30.8,15.1,0002.5,0011.25,0004.93,0004.34
2021-08-25 05:18:00,,0829.2,5.00,0.00,29.3,26.9,00.0,38.5,30.9,15.2,0002.4,0011.05,0004.94,0004.34
2021-08-25 05:19:00,,0829.3,4.99,0.00,29.3,27.3,00.0,38.4,31.0,15.1,0002.3,0010.82,0004.93,0004.34
2021-08-25 05:20:00,,0829.3,5.01,0.00,29.3,27.6,00.0,38.4,31.0,15.2,0002.1,0010.79,0004.94,0004.34
2021-08-25 05:21:00,,0829.3,4.99,0.00,29.3,27.8,00.0,38.4,31.1,15.0,0002.1,0011.14,0004.94,0004.34
2021-08-25 05:22:00,,0829.3,5.00,0.00,29.4,28.0,00.0,38.4,31.2,15.0,0002.4,0011.78,0004.94,0004.35
2021-08-25 05:23:00,,0829.3,4.99,0.00,29.4,28.2,00.0,38.4,31.2,15.1,0002.5,0013.16,0004.99,0004.35
2021-08-25 05:24:00,,0829.3,4.98,0.00,29.4,28.3,00.0,38.5,31.3,15.0,0002.5,0014.50,0005.00,0004.35
2021-08-25 05:25:00,,0829.3,5.00,0.00,29.4,28.4,00.0,38.5,31.3,14.9,0002.4,0014.27,0004.98,0004.34
2021-08-25 05:26:00,,0829.2,5.00,0.00,29.5,28.5,00.0,38.5,31.3,14.9,0002.5,0014.15,0004.96,0004.34
2021-08-25 05:27:00,,0829.3,4.99,0.00,29.5,28.6,00.0,38.5,31.4,14.9,0002.3,0013.94,0004.96,0004.34
2021-08-25 05:28:00,,0829.3,5.00,0.00,29.5,28.6,00.0,38.5,31.4,14.9,0002.0,0013.21,0004.96,0004.34
2021-08-25 05:29:00,,0829.4,5.00,0.00,29.6,28.7,00.0,38.6,31.5,14.9,0002.0,0013.20,0004.95,0004.34
2021-08-25 05:30:00,,0829.6,4.99,0.00,29.6,28.7,00.0,38.6,31.5,15.0,0002.1,0013.08,0004.95,0004.33
2021-08-25 05:31:00,,0829.5,5.00,0.00,29.7,28.5,00.0,38.6,31.4,17.1,0001.9,0013.03,0004.94,0004.33
2021-08-25 05:32:00,,0829.5,5.00,0.00,29.5,26.7,00.0,38.6,30.9,17.5,0001.7,0012.47,0004.95,0004.33
2021-08-25 05:33:00,,0829.6,5.01,0.00,29.4,26.2,00.0,38.5,30.8,19.2,0001.3,0012.52,0004.96,0004.34
2021-08-25 05:34:00,,0829.6,4.99,0.00,29.3,26.5,00.0,38.5,30.8,19.1,0001.4,0011.36,0004.94,0004.35
2021-08-25 05:35:00,,0829.8,5.01,0.00,29.3,26.9,00.0,38.5,30.9,18.0,0001.7,0010.02,0004.93,0004.36
2021-08-25 05:36:00,,0829.6,4.99,0.00,29.3,27.3,00.0,38.5,31.0,18.6,0001.9,0009.84,0004.97,0004.38
2021-08-25 05:37:00,,0829.6,5.01,0.00,29.3,27.6,00.0,38.5,31.0,17.7,0001.9,0010.19,0005.02,0004.39
2021-08-25 05:38:00,,0829.7,4.99,0.00,29.3,27.8,00.0,38.5,31.1,17.8,0002.2,0010.63,0005.07,0004.41
2021-08-25 05:39:00,,0829.7,5.00,0.00,29.4,28.1,00.0,38.5,31.2,17.5,0002.6,0011.37,0005.10,0004.40
2021-08-25 05:40:00,,0829.8,4.98,0.00,29.4,28.2,00.0,38.5,31.2,17.6,0002.7,0011.22,0005.14,0004.41
2021-08-25 05:41:00,,0829.8,5.00,0.00,29.4,28.4,00.0,38.5,31.3,18.0,0002.9,0011.69,0005.14,0004.42
2021-08-25 05:42:00,,0829.8,5.01,0.00,29.5,28.5,00.0,38.5,31.3,18.1,0003.2,0011.89,0005.12,0004.43
2021-08-25 05:43:00,,0829.8,5.01,0.00,29.5,28.6,00.0,38.5,31.4,17.9,0003.2,0011.95,0005.11,0004.44
2021-08-25 05:44:00,,0829.8,5.00,0.00,29.6,28.7,00.0,38.5,31.4,17.5,0003.4,0011.45,0005.10,0004.44
2021-08-25 05:45:00,,0829.8,4.99,0.00,29.6,28.8,00.0,38.6,31.4,17.2,0003.2,0012.21,0005.11,0004.44
2021-08-25 05:46:00,,0829.8,5.00,0.00,29.6,28.8,00.0,38.6,31.5,17.1,0002.9,0012.27,0005.10,0004.44
2021-08-25 05:47:00,,0829.8,4.99,0.00,29.7,28.9,00.0,38.6,31.5,16.6,0002.9,0012.80,0005.10,0004.43
2021-08-25 05:48:00,,0829.9,5.00,0.00,29.7,29.0,00.0,38.6,31.6,16.6,0002.8,0012.98,0005.08,0004.43
2021-08-25 05:49:00,,0829.9,5.00,0.00,29.8,29.0,00.0,38.7,31.6,16.5,0002.6,0013.19,0005.09,0004.43
2021-08-25 05:50:00,,0829.9,5.01,0.00,29.8,28.2,00.0,38.7,31.4,16.3,0002.6,0012.51,0005.07,0004.43
2021-08-25 05:51:00,,0829.9,5.00,0.00,29.6,26.5,00.0,38.7,31.0,16.4,0002.9,0013.03,0005.06,0004.43
2021-08-25 05:52:00,,0829.8,5.00,0.00,29.5,26.3,00.0,38.6,30.9,16.4,0003.0,0013.36,0005.10,0004.44
2021-08-25 05:53:00,,0829.9,5.00,0.00,29.4,26.7,00.0,38.6,31.0,16.4,0003.1,0013.89,0005.15,0004.43
2021-08-25 05:54:00,,0829.9,5.01,0.00,29.4,27.1,00.0,38.6,31.0,16.3,0002.9,0013.88,0005.19,0004.41
2021-08-25 05:55:00,,0829.8,4.99,0.00,29.4,27.4,00.0,38.6,31.1,16.1,0003.0,0014.35,0005.16,0004.40
2021-08-25 05:56:00,,0829.9,4.99,0.00,29.4,27.8,00.0,38.5,31.1,16.1,0003.3,0013.62,0005.13,0004.38
2021-08-25 05:57:00,,0829.8,5.01,0.00,29.5,28.0,00.0,38.5,31.2,15.9,0003.2,0014.04,0005.15,0004.36
2021-08-25 05:58:00,,0829.9,5.00,0.00,29.5,28.2,00.0,38.6,31.3,16.0,0002.7,0014.44,0005.13,0004.35
2021-08-25 05:59:00,,0829.9,5.00,0.00,29.5,28.4,00.0,38.6,31.3,16.3,0002.3,0014.37,0005.17,0004.35
